User: anonymous   Login
Location: Chervonnoye
(48.6000°N, 34.4000°E)
Time: 21:38:43
(UTC+00:00)
Language:

STRAND 1 - Orbit

View from above orbital plane
View from above orbital plane
View from above satellite
View from above satellite

Ground track
Ground track

The orbit data is extracted from the following two-line orbital elements,

1 39090U 13009E   21338.79637164  .00000164  00000-0  72183-4 0  9990
2 39090  98.4127 176.8789 0009938 127.2324 232.9770 14.35210170459473
Epoch (UTC): 04 December 2021 19:06:46
Eccentricity: 0.0009938
inclination: 98.4127°
perigee height: 767 km
apogee height: 781 km
right ascension of ascending node: 176.8789°
argument of perigee: 127.2324°
revolutions per day: 14.35210170
mean anomaly at epoch: 232.9770°
orbit number at epoch: 45947

The dashed part of the orbit path shows where the satellite is in the earth's shadow,  

DLR